Location: Newark
(21.1200°N, 73.4000°E)
Time: 19:43:31
(UTC+00:00)

SR - Pass Details

Date: 28 January 2020
Orbit: 575 x 880 km, 66.7° (Epoch: 23 February)

Event Time Altitude Azimuth Distance (km) Brightness Sun altitude
Rises 02:07:53 0° 343° (NNW) 3,255 ? 4.2°
Reaches altitude 10° 02:10:26 10° 348° (NNW) 2,276 ? 4.8°
Maximum altitude 02:15:30 54° 66° (ENE) 852 ? 5.8°
Drops below altitude 10° 02:20:06 10° 143° (SE) 2,073 ? 6.8°
Sets 02:22:20 0° 148° (SSE) 2,938 ? 7.3°
